Regional Weather Roundup
Issued by NWS Upton, NY

Current Version | Previous Version | Graphics & Text | Print | Product List | Glossary Off
Versions: 1 2 3 4 5 6 7 8 9 10 11 12 13 14 15 16 17 18 19 20 21 22 23 24 25 26 27 28 29 30 31 32 33 34 35 36 37 38 39 40 41 42 43 44 45 46 47 48 49 50

000
ASUS41 KOKX 222105
RWROKX

REGIONAL WEATHER ROUNDUP
NATIONAL WEATHER SERVICE NEW YORK NY
400 PM EST SAT NOV 22 2014

NOTE: "FAIR" INDICATES FEW OR NO CLOUDS BELOW 12,000 FEET WITH NO
SIGNIFICANT WEATHER AND/OR OBSTRUCTIONS TO VISIBILITY.

NYZ071-072-176-178-NJZ106-104-222200-
NEW YORK CITY METRO AREA


CITY           SKY/WX    TMP DP  RH WIND       PRES   REMARKS
CENTRAL PARK   CLOUDY    42  15  33 VRB3      30.29F
LAGUARDIA APRT MOCLDY    42  16  34 SW17      30.27F
KENNEDY INTL   MOCLDY    43  19  38 SW12      30.30F
NEWARK/LIBERTY MOCLDY    43  16  33 SW14      30.28F
BRNX BOT. GARD   N/A    N/A N/A N/A S5        30.26F
TETERBORO      CLOUDY    43  15  32 SW13      30.27F
$$

NYZ177-179-078>081-222200-
LONG ISLAND NEW YORK

CITY           SKY/WX    TMP DP  RH WIND       PRES   REMARKS
FARMINGDALE    CLOUDY    44  17  33 SW15      30.28F
ISLIP          MOCLDY    42  20  41 SW14      30.26F
SHIRLEY        MOCLDY    41  24  51 SW14G20   30.28F
WESTHAMPTON    PTCLDY    42  25  50 SW18G26   30.28F
MONTAUK POINT    N/A     42  29  59 SW14G24   30.27F
$$

NYZ052-065-067-222200-
HUDSON VALLEY

CITY           SKY/WX    TMP DP  RH WIND       PRES   REMARKS
WHITE PLAINS   MOCLDY    40  11  30 SW9       30.23F WCI  34
NEWBURGH       MOCLDY    41  10  28 S12G18    30.22F
MONTGOMERY     CLOUDY    40  11  30 SW15G23   30.20F WCI  32
POUGHKEEPSIE   CLOUDY    43  10  26 SW5       30.22F
ALBANY         LGT RAIN  36  19  50 S7        30.12F WCI  30
$$

NJZ001-105-106-008-010-013-015-019>022-104-222200-
NEW JERSEY

CITY           SKY/WX    TMP DP  RH WIND       PRES   REMARKS
NEWARK/LIBERTY MOCLDY    43  16  33 SW14      30.28F
TETERBORO      CLOUDY    43  15  32 SW13      30.27F
CALDWELL       CLOUDY    42  13  30 SW9       30.27F
MORRISTOWN     MOCLDY    43  14  31 SW9       30.28S
SOMERVILLE     CLOUDY    43  15  32 VRB6      30.26F
SUSSEX         CLOUDY    40  13  33 SW9       30.22F WCI  34
ANDOVER          N/A     40  12  32 SW8       30.24F WCI  34
TRENTON        CLOUDY    42  18  37 SW15G21   30.28F
MILLVILLE      PTCLDY    44  19  36 SW10      30.33F
ATLANTIC CITY  CLEAR     44  21  40 SW9       30.33F
WRIGHTSTOWN    CLOUDY    43  16  33 SW13      30.29S
TOMS RIVER     CLEAR     43  18  36 SW6       30.33R
BELMAR         CLEAR     43  16  33 W12       30.30S
$$

PAZ047>061-062-071-222200-
EASTERN PENNSYLVANIA

CITY           SKY/WX    TMP DP  RH WIND       PRES   REMARKS
PHILADELPHIA   MOCLDY    45  16  31 SW13      30.32F
ALLENTOWN      CLOUDY    42  14  32 SW10      30.27F
SCRANTON       CLOUDY    40  11  30 SW10      30.19S WCI  33
$$

CTZ002-004>006-009-010-012-RIZ004-006-007-MAZ004-011-015-222200-
SOUTHERN NEW ENGLAND
 IN CT

CITY           SKY/WX    TMP DP  RH WIND       PRES   REMARKS
BRADLEY INTL   MOCLDY    43   9  24 SW13G25   30.18F
HARTFORD       CLOUDY    40  13  33 S13       30.22F WCI  32
DANBURY        CLOUDY    40   8  26 SW8G16    30.23F WCI  34
WTRBRY/OXFORD  CLOUDY    37  10  32 SW9       30.22F WCI  31
BRIDGEPORT     CLOUDY    42  20  41 SW17      30.25F
MERIDEN        MOCLDY    40  15  36 S9        30.24F WCI  34
NEW HAVEN      MOCLDY    44  20  38 SW10G20   30.26F
CHESTER        FAIR      39  21  48 SW7G18    30.23F WCI  34
GROTON         PTCLDY    40  25  55 SW17G26   30.24F WCI  31
WILLIMANTIC    PTCLDY    39  15  37 SW9       30.22F WCI  33

 IN RI

CITY           SKY/WX    TMP DP  RH WIND       PRES   REMARKS
PROVIDENCE     MOCLDY    39  18  42 SW9       30.22F WCI  33
BLOCK ISLAND   PTCLDY    43  28  56 SW17G29   30.25S
WESTERLY       PTCLDY    40  23  50 SW18G26   30.25F WCI  31

 IN MA

CITY           SKY/WX    TMP DP  RH WIND       PRES   REMARKS
BOSTON         MOCLDY    43   9  24 SW18G28   30.14F
WORCESTER      MOCLDY    36   7  29 SW15      30.12F WCI  27
WESTFIELD      CLOUDY    41  10  28 S15G21    30.15F
PROVINCETOWN   PTCLDY    43  21  42 SW23G33   30.18S
NANTUCKET      CLEAR     45  32  60 SW26G32   30.24F
$$

ANZ330-335-338-340-345-350-353-355-222200-
COASTAL MARINE OBSERVATIONS


STATION/POSITION TIME  SKY/WX   TEMP    WIND        PRES    VSBY  WAVE
                                AIR SEA DIR/SP/G                  HT/PER
                 (UTC)          (F)     (DEG/KT/KT) (MB)    (MI)  (FT/S)
NY HARB ENTRANCE 2100            46 56  240/ 16/ 19 1025.8          3/ 4
4S FIRE IS       2100               52                N/A           4/ 5
20S FIRE ISLAND  2100            45 54  230/ 23/ 29 1025.4          6/ 5
23SW MTP         2100                                 N/A           7/ 6
HUDSON CANYON    2100            47 58  240/ 23/ 27 1026.6          5/ 5
EXECUTION ROCKS  2100            43 47  230/ 17/ 23   N/A
WESTERN LI SOUND 2100            43     210/ 14/ 16   N/A           2/ 3
CENTRAL LI SOUND 2000            42 50  220/ 19/ 23   N/A           3/ 4
EASTERN LI SOUND 2000            42 52  220/ 19/ 25   N/A
ROBBINS REEF     2100            42     230/ 14/ 21 1024.4
$$


>>>>>>>>>>>>>>>>>>>>>>>>>>>> KEY <<<<<<<<<<<<<<<<<<<<<<<<<<<
>                                                          <
>     SKY/WX - SKY CONDITION/PRESENT WEATHER               <
>     TMP    - TEMPERATURE IN FAHRENHEIT                   <
>     DP     - DEWPOINT IN FAHRENHEIT                      <
>     RH     - RELATIVE HUMIDITY IN PERCENT                <
>     WIND   - DIRECTION AND SPEED IN MPH                  <
>     PRES   - MEAN SEA LEVEL PRESSURE IN INCHES OF HG     <
>     WCI    - WIND CHILL INDEX                            <
>     VSB    - VISIBILITY IN MILES                         <
>     HX     - HEAT INDEX                                  <
>     TC     - TEMPERATURE IN CELSIUS                      <
>     VRB    - VARIABLE WIND DIRECTION                     <
>                                                          <
>>>>>>>>>>>>>>>>>>>>>>>>>>>> KEY <<<<<<<<<<<<<<<<<<<<<<<<<<<





USA.gov is the U.S. government's official web portal to all federal, state and local government web resources and services.